User: anonymous   Login
Location: Unspecified
(0.0000°N, 0.0000°E)
Time: 06:14:07
(UTC+00:00)
Language:

Freja - Orbit

View from above orbital plane
View from above orbital plane
View from above satellite
View from above satellite

Ground track
Ground track

The orbit data is extracted from the following two-line orbital elements,

1 22161U 92064A   18321.00684487 -.00000077 +00000-0 +14556-4 0  9995
2 22161 062.9840 175.2267 0792802 003.8948 356.7765 13.30323756265323
Epoch (UTC): 17 November 2018 00:09:51
Eccentricity: 0.0792802
inclination: 62.9840°
perigee height: 549 km
apogee height: 1742 km
right ascension of ascending node: 175.2267°
argument of perigee: 3.8948°
revolutions per day: 13.30323756
mean anomaly at epoch: 356.7765°
orbit number at epoch: 26532

The dashed part of the orbit path shows where the satellite is in the earth's shadow,  

DLR